Location: Newark
(52.5694°N, 1.3190°W)
Time: 19:04:23
(UTC+00:00)

ISS - Visible Passes

Search period start: 27 January 2020 00:00
Search period end: 06 February 2020 00:00
Orbit: 416 x 423 km, 51.6° (Epoch: 28 January)

Date Brightness Start Highest point End Pass type
(mag) Time Alt. Az. Time Alt. Az. Time Alt. Az.
27 Jan -3.5 18:14:35 10° WSW 18:17:55 58° SSE 18:19:20 30° E visible
27 Jan -0.9 19:51:15 10° W 19:52:18 18° W 19:52:18 18° W visible
28 Jan -3.1 17:27:12 10° SW 17:30:28 47° SSE 17:33:44 10° E visible
28 Jan -3.4 19:03:45 10° W 19:06:44 64° WSW 19:06:44 64° WSW visible
29 Jan -3.7 18:16:15 10° W 18:19:38 75° S 18:21:10 30° E visible
29 Jan -1.0 19:53:01 10° W 19:54:08 19° W 19:54:08 19° W visible
30 Jan -3.5 17:28:45 10° WSW 17:32:08 69° S 17:35:30 10° E visible
30 Jan -3.4 19:05:29 10° W 19:08:34 63° SW 19:08:34 63° SW visible
31 Jan -3.7 18:17:58 10° W 18:21:20 76° S 18:23:01 27° ESE visible
31 Jan -1.0 19:54:47 10° W 19:55:59 19° W 19:55:59 19° W visible
01 Feb -3.6 17:30:24 10° W 17:33:48 78° S 17:37:12 10° E visible
01 Feb -3.1 19:07:12 10° W 19:10:29 47° SSW 19:10:29 47° SSW visible
02 Feb -3.3 18:19:37 10° W 18:22:59 59° SSW 18:25:01 21° ESE visible
02 Feb -0.9 19:56:46 10° W 19:57:59 16° WSW 19:57:59 16° WSW visible
03 Feb -3.5 17:32:03 10° W 17:35:26 69° S 17:38:48 10° ESE visible
03 Feb -2.1 19:09:00 10° W 19:11:56 28° SSW 19:12:36 26° S visible
04 Feb -2.4 18:21:19 10° W 18:24:29 37° SSW 18:27:19 12° SE visible
05 Feb -2.8 17:33:41 10° W 17:36:58 47° SSW 17:40:14 10° SE visible
05 Feb -0.9 19:11:13 10° WSW 19:13:12 15° SW 19:15:09 10° S visible
